Rush City, MN

8:09 PM CST on December 17, 2017 (GMT -0600)
Rush City Regional

Weather History for KROS - April, 2013

Change the Weather History Date:

Friday, April 12, 2013

  Actual Average (KCBG) Record (KCBG)
Temperature  
Mean Temperature 30 °F -  
Max Temperature 34 °F 52 °F 78 °F (2015)
Min Temperature 27 °F 32 °F 10 °F (1950)
Degree Days  
Heating Degree Days 34    
Moisture  
Dew Point 26 °F    
Average Humidity 83    
Maximum Humidity 94    
Minimum Humidity 65    
Precipitation  
Precipitation 0.15 in - - ()
Sea Level Pressure  
Sea Level Pressure 29.74 in    
Wind  
Wind Speed 9 mph (NNE)    
Max Wind Speed 15 mph    
Max Gust Speed 18 mph    
Visibility 9 miles    
Events Rain , Snow    
Averages and records for this station are not official NWS values.
T = Trace of Precipitation, MM = Missing Value Source: NWS Daily Summary

Daily Weather History Graph

Daily Weather History Graph

Search for Another Location

Airport or City:

Trip Planner

Search our weather history database for the weather conditions in past years. The results will help you decide how hot, cold, wet, or windy it might be!

Date:

Astronomy

Apr. 12, 2013 Rise Set
Actual Time 6:30 AM CDT 7:54 PM CDT
Civil Twilight 6:00 AM CDT 8:25 PM CDT
Nautical Twilight 5:22 AM CDT 9:03 PM CDT
Astronomical Twilight 4:43 AM CDT 9:43 PM CDT
Moon 7:34 AM CDT (4/12) 10:33 PM CDT (4/12)
Length of Visible Light 14h 25m
Length of Day
13h 23m
Waxing Crescent, 5% of the Moon is Illuminated
Apr 12
Waxing Crescent
Apr 18
First Quarter
Apr 25
Full
May 2
Last Quarter
May 9
New

Hourly Weather History & Observations

Time (CDT) Temp. Windchill Dew Point Humidity Pressure Visibility Wind Dir Wind Speed Gust Speed Precip Events Conditions
12:15 AM 28.2 °F 17.7 °F 24.3 °F 85% 29.74 in 10.0 mi NE 12.7 mph 18.4 mph N/A   Overcast
12:35 AM 28.2 °F 17.2 °F 23.9 °F 84% 29.74 in 10.0 mi NE 13.8 mph - N/A   Overcast
12:55 AM 28.0 °F 19.3 °F 23.9 °F 84% 29.73 in 10.0 mi NE 9.2 mph 16.1 mph N/A   Overcast
1:15 AM 27.9 °F 17.8 °F 24.3 °F 86% 29.73 in 5.0 mi NE 11.5 mph - N/A   Overcast
1:35 AM 27.5 °F 19.3 °F 24.6 °F 89% 29.72 in 7.0 mi NNE 8.1 mph - N/A   Overcast
1:56 AM 27.9 °F 18.4 °F 24.6 °F 88% 29.71 in 7.0 mi NE 10.4 mph - N/A Snow Light Snow
2:15 AM 27.9 °F 19.8 °F 24.4 °F 87% 29.71 in 10.0 mi NE 8.1 mph 16.1 mph N/A   Overcast
2:35 AM 28.0 °F 18.6 °F 23.9 °F 84% 29.71 in 10.0 mi NNE 10.4 mph - N/A   Overcast
2:55 AM 28.4 °F 19.7 °F 23.9 °F 83% 29.70 in 10.0 mi NNE 9.2 mph - N/A   Overcast
3:15 AM 28.4 °F 20.4 °F 23.9 °F 83% 29.70 in 10.0 mi NNE 8.1 mph - N/A   Overcast
3:35 AM 28.6 °F 20.7 °F 23.9 °F 83% 29.70 in 10.0 mi NE 8.1 mph - N/A   Overcast
3:56 AM 28.6 °F 19.9 °F 24.6 °F 85% 29.70 in 10.0 mi NNE 9.2 mph - N/A   Overcast
4:15 AM 28.4 °F 20.4 °F 24.8 °F 86% 29.70 in 10.0 mi NNE 8.1 mph - N/A Snow Light Snow
4:35 AM 28.2 °F 21.0 °F 25.3 °F 89% 29.70 in 7.0 mi NNE 6.9 mph - N/A Rain Light Freezing Rain
4:56 AM 28.0 °F 20.8 °F 25.7 °F 91% 29.70 in 7.0 mi NNE 6.9 mph - N/A Rain Light Freezing Rain
5:15 AM 28.2 °F 22.0 °F 26.1 °F 92% 29.69 in 7.0 mi NNE 5.8 mph - N/A Rain Light Freezing Rain
5:35 AM 28.2 °F 23.1 °F 26.2 °F 92% 29.69 in 10.0 mi NNE 4.6 mph - N/A Rain Light Freezing Rain
5:56 AM 28.4 °F 22.2 °F 26.6 °F 93% 29.69 in 10.0 mi NNE 5.8 mph - N/A Rain Light Freezing Rain
6:15 AM 28.4 °F 22.2 °F 26.6 °F 93% 29.69 in 7.0 mi NNE 5.8 mph - N/A Rain Light Freezing Rain
6:35 AM 28.4 °F 23.3 °F 26.6 °F 93% 29.69 in 7.0 mi NE 4.6 mph - N/A Rain Light Freezing Rain
6:56 AM 28.4 °F 23.3 °F 26.8 °F 94% 29.69 in 5.0 mi NNE 4.6 mph - N/A Rain Light Freezing Rain
7:15 AM 28.8 °F 23.7 °F 27.1 °F 94% 29.69 in 7.0 mi NNE 4.6 mph - N/A Rain Light Freezing Rain
7:35 AM 28.9 °F 22.8 °F 27.3 °F 94% 29.69 in 7.0 mi NNE 5.8 mph - N/A Rain Light Freezing Rain
7:56 AM 29.3 °F 23.2 °F 27.5 °F 93% 29.69 in 10.0 mi NNE 5.8 mph - N/A Rain Light Freezing Rain
8:15 AM 29.7 °F 23.7 °F 27.7 °F 92% 29.69 in 10.0 mi NNE 5.8 mph - N/A   Overcast
8:35 AM 29.8 °F 23.0 °F 27.5 °F 91% 29.69 in 10.0 mi NNE 6.9 mph - N/A   Overcast
8:56 AM 30.0 °F 25.2 °F 27.5 °F 90% 29.69 in 10.0 mi NNE 4.6 mph - N/A   Overcast
9:15 AM 30.2 °F 23.4 °F 27.5 °F 90% 29.69 in 10.0 mi NNE 6.9 mph - N/A   Overcast
9:56 AM 30.9 °F 23.5 °F 27.7 °F 88% 29.70 in 10.0 mi NNE 8.1 mph - N/A   Overcast
10:15 AM 31.6 °F 25.1 °F 27.5 °F 85% 29.70 in 10.0 mi NNE 6.9 mph - 0.02 in   Overcast
10:35 AM 31.6 °F 24.4 °F 27.7 °F 85% 29.71 in 10.0 mi NNE 8.1 mph - 0.02 in Rain Light Freezing Rain
10:55 AM 31.8 °F 23.9 °F 28.2 °F 87% 29.71 in 7.0 mi North 9.2 mph - 0.04 in Rain Light Freezing Rain
11:15 AM 32.0 °F 23.6 °F 28.4 °F 87% 29.71 in 10.0 mi NNE 10.4 mph - 0.03 in   Overcast
11:36 AM 32.2 °F 25.0 °F 28.6 °F 87% 29.72 in 10.0 mi North 8.1 mph - 0.08 in Rain Light Rain
11:55 AM 32.9 °F 24.7 °F 28.6 °F 84% 29.71 in 10.0 mi North 10.4 mph - 0.11 in   Overcast
12:15 PM 32.9 °F 24.7 °F 28.0 °F 82% 29.72 in 10.0 mi NNE 10.4 mph - N/A   Overcast
12:35 PM 32.9 °F 24.7 °F 27.7 °F 81% 29.72 in 10.0 mi NNE 10.4 mph - N/A   Overcast
12:55 PM 32.9 °F 25.9 °F 27.3 °F 80% 29.72 in 10.0 mi NNE 8.1 mph - N/A   Overcast
1:15 PM 33.8 °F 25.3 °F 26.4 °F 74% 29.72 in 10.0 mi NNE 11.5 mph - N/A   Overcast
1:35 PM 34.3 °F 26.5 °F 25.9 °F 71% 29.72 in 10.0 mi North 10.4 mph - N/A   Overcast
1:56 PM 34.0 °F 26.6 °F 26.8 °F 75% 29.73 in 10.0 mi North 9.2 mph - N/A   Overcast
2:15 PM 34.7 °F 26.9 °F 26.1 °F 71% 29.73 in 10.0 mi NNE 10.4 mph - N/A   Overcast
2:35 PM 34.7 °F 27.5 °F 23.9 °F 65% 29.73 in 10.0 mi NNE 9.2 mph - N/A   Overcast
2:56 PM 34.7 °F 26.4 °F 25.5 °F 69% 29.73 in 10.0 mi North 11.5 mph - N/A   Overcast
3:15 PM 33.4 °F 24.8 °F 25.3 °F 72% 29.73 in 10.0 mi NNE 11.5 mph 16.1 mph N/A   Overcast
3:35 PM 33.8 °F 25.3 °F 25.5 °F 72% 29.74 in 10.0 mi NNE 11.5 mph - N/A   Overcast
3:56 PM 33.1 °F 26.1 °F 26.4 °F 77% 29.74 in 10.0 mi NNE 8.1 mph - N/A   Overcast
4:15 PM 33.1 °F 24.4 °F 25.5 °F 74% 29.75 in 10.0 mi North 11.5 mph - N/A   Overcast
4:35 PM 33.8 °F 24.8 °F 24.6 °F 69% 29.75 in 10.0 mi North 12.7 mph - N/A   Overcast
4:56 PM 33.1 °F 24.4 °F 24.4 °F 71% 29.76 in 10.0 mi North 11.5 mph - N/A   Overcast
5:15 PM 32.5 °F 23.2 °F 24.4 °F 72% 29.77 in 10.0 mi North 12.7 mph - N/A   Overcast
5:35 PM 32.0 °F 23.6 °F 23.9 °F 72% 29.77 in 10.0 mi North 10.4 mph - N/A   Overcast
5:55 PM 32.0 °F 21.6 °F 24.4 °F 74% 29.78 in 10.0 mi North 15.0 mph - N/A   Overcast
6:15 PM 31.8 °F 22.8 °F 24.8 °F 75% 29.79 in 10.0 mi North 11.5 mph - N/A   Overcast
6:35 PM 31.1 °F 23.1 °F 25.2 °F 79% 29.80 in 10.0 mi North 9.2 mph - N/A   Overcast
6:55 PM 31.1 °F 21.9 °F 25.0 °F 78% 29.80 in 10.0 mi North 11.5 mph - N/A   Overcast
7:15 PM 30.9 °F 22.8 °F 24.8 °F 78% 29.81 in 10.0 mi North 9.2 mph - N/A   Overcast
7:35 PM 30.2 °F 21.9 °F 24.6 °F 80% 29.81 in 10.0 mi North 9.2 mph - N/A   Overcast
7:55 PM 29.7 °F 20.7 °F 24.4 °F 81% 29.81 in 10.0 mi North 10.4 mph - N/A   Overcast
8:15 PM 29.3 °F 20.8 °F 24.4 °F 82% 29.81 in 10.0 mi North 9.2 mph - N/A   Overcast
8:35 PM 29.1 °F 21.3 °F 24.8 °F 84% 29.81 in 10.0 mi North 8.1 mph - N/A   Overcast
8:55 PM 28.8 °F 22.6 °F 24.8 °F 85% 29.82 in 10.0 mi North 5.8 mph - N/A   Overcast
9:15 PM 28.4 °F 20.4 °F 24.8 °F 86% 29.82 in 10.0 mi North 8.1 mph - N/A   Overcast
9:35 PM 28.4 °F 22.2 °F 24.8 °F 86% 29.83 in 10.0 mi North 5.8 mph - N/A   Overcast
9:55 PM 28.4 °F 21.2 °F 24.6 °F 86% 29.83 in 10.0 mi North 6.9 mph - N/A   Overcast
10:16 PM 28.4 °F 24.6 °F 24.6 °F 86% 29.83 in 10.0 mi NNW 3.5 mph - N/A   Overcast
10:35 PM 28.2 °F 23.1 °F 24.6 °F 86% 29.83 in 10.0 mi North 4.6 mph - N/A   Overcast
10:55 PM 28.2 °F 23.1 °F 24.4 °F 86% 29.83 in 10.0 mi NNW 4.6 mph - N/A   Overcast
11:16 PM 28.0 °F 24.2 °F 24.4 °F 86% 29.83 in 10.0 mi NNW 3.5 mph - N/A Rain Light Freezing Rain
11:35 PM 27.5 °F - 24.4 °F 88% 29.83 in 10.0 mi Calm Calm - N/A Rain Light Freezing Rain
11:56 PM 27.3 °F - 24.4 °F 89% 29.83 in 10.0 mi Calm Calm - N/A   Overcast